This demonstration page uses our WeatherBlox Daily Observations layout. Learn more.

Left ArrowRight Arrow

Hourly Observations for January 21, 2021

Temp ( °F °C ) Dew Point ( °F °C ) Humidity (%) Winds ( mph kmh ) Pressure ( in mb ) Visibility ( mi km ) Precip ( " mm )
12:53 am 00:53 Clear 18 -7.8 10 -12.2 71 71 WSW 9 15 30.11 1020 10 16 0.00 0.00
1:53 am 01:53 Clear 18 -7.8 10 -12.2 71 71 WSW 8 13 30.12 1020 10 16 0.00 0.00
2:53 am 02:53 Mostly Cloudy 19 -7.2 12 -11.1 74 74 SSW 8 13 30.13 1020 10 16 0.00 0.00
3:53 am 03:53 Cloudy 24 -4.4 14 -10 65 65 W 8 13 30.13 1020 10 16 0.00 0.00
4:53 am 04:53 Cloudy 24 -4.4 14 -10 65 65 W 9 15 30.15 1021 10 16 0.00 0.00
5:53 am 05:53 Cloudy 24 -4.4 14 -10 65 65 WSW 9 15 30.17 1022 10 16 0.00 0.00
6:53 am 06:53 Mostly Cloudy 21 -6.1 14 -10 74 74 W 9 15 30.21 1023 10 16 0.00 0.00
7:53 am 07:53 Cloudy 22 -5.6 14 -10 71 71 W 7 11 30.23 1024 10 16 0.00 0.00
8:53 am 08:53 Cloudy 25 -3.9 15 -9.4 66 66 WNW 10 17 30.24 1024 10 16 0.00 0.00
9:53 am 09:53 Cloudy 27 -2.8 16 -8.9 63 63 WNW 10 17 30.24 1024 10 16 0.00 0.00
10:53 am 10:53 Cloudy 28 -2.2 16 -8.9 60 60 WNW 10 17 30.25 1025 10 16 0.00 0.00
11:53 am 11:53 Cloudy 29 -1.7 17 -8.3 61 61 W 9 15 30.24 1024 10 16 0.00 0.00
12:53 pm 12:53 Cloudy 29 -1.7 15 -9.4 56 56 NW 9 15 30.22 1024 10 16 0.00 0.00
1:53 pm 13:53 Cloudy 29 -1.7 15 -9.4 56 56 NW 12 19 30.22 1023 10 16 0.00 0.00
2:53 pm 14:53 Mostly Cloudy 30 -1.1 15 -9.4 54 54 NW 9 15 30.20 1023 10 16 0.00 0.00
3:53 pm 15:53 Sunny 30 -1.1 15 -9.4 54 54 NW 9 15 30.19 1022 10 16 0.00 0.00
4:53 pm 16:53 Sunny 26 -3.3 15 -9.4 63 63 NNW 3 6 30.20 1023 10 16 0.00 0.00
5:53 pm 17:53 Clear 24 -4.4 14 -10 65 65 N 5 7 30.21 1023 10 16 0.00 0.00
6:53 pm 18:53 Clear 14 -10 9 -12.8 80 80 SSE 5 7 30.23 1024 10 16 0.00 0.00
7:53 pm 19:53 Clear 11 -11.7 7 -13.9 84 84 S 3 6 30.24 1024 10 16 0.00 0.00
8:53 pm 20:53 Clear 11 -11.7 7 -13.9 84 84 WSW 3 6 30.24 1024 10 16 0.00 0.00
9:53 pm 21:53 Clear 10 -12.2 6 -14.4 84 84 WSW 3 6 30.25 1024 10 16 0.00 0.00
10:53 pm 22:53 Clear 9 -12.8 5 -15 84 84 W 6 9 30.24 1024 10 16 0.00 0.00
11:53 pm 23:53 Clear 8 -13.3 5 -15 87 87 W 5 7 30.24 1024 10 16 0.00 0.00

Powered by AerisWeather